Clayton Lake, ME

9:01 AM EST on February 26, 2017 (GMT -0500)
Clayton Lake

Weather History for K40B - January, 2013

Change the Weather History Date:

Wednesday, January 23, 2013

  Actual Average Record
Temperature  
Mean Temperature -13 °F -  
Max Temperature -8 °F 16 °F 39 °F (2002)
Min Temperature -18 °F -7 °F -96 °F (2000)
Degree Days  
Heating Degree Days 78    
Moisture  
Dew Point -23 °F    
Average Humidity 66    
Maximum Humidity 78    
Minimum Humidity 52    
Precipitation  
Precipitation 0.04 in - - ()
Sea Level Pressure  
Sea Level Pressure 29.98 in    
Wind  
Wind Speed 6 mph (SW)    
Max Wind Speed 9 mph    
Max Gust Speed 22 mph    
Averages and records for this station are not official NWS values.
T = Trace of Precipitation, MM = Missing Value Source: NWS Daily Summary

Daily Weather History Graph

Daily Weather History Graph

Search for Another Location

Airport or City:

Trip Planner

Search our weather history database for the weather conditions in past years. The results will help you decide how hot, cold, wet, or windy it might be!

Date:

Astronomy

Jan. 23, 2013 Rise Set
Actual Time 7:11 AM EST 4:28 PM EST
Civil Twilight 6:38 AM EST 5:02 PM EST
Nautical Twilight 6:01 AM EST 5:39 PM EST
Astronomical Twilight 5:25 AM EST 6:14 PM EST
Moon 1:33 PM EST (1/23) 4:23 AM EST (1/23)
Length of Visible Light 10h 23m
Length of Day
9h 17m
Waxing Gibbous, 89% of the Moon is Illuminated
Jan 23
Waxing Gibbous
Jan 26
Full
Feb 3
Last Quarter
Feb 10
New
Feb 17
First Quarter

Hourly Weather History & Observations

Time (EST) Temp. Windchill Dew Point Humidity Pressure Visibility Wind Dir Wind Speed Gust Speed Precip Events Conditions
12:25 AM -8.7 °F -20.0 °F -14.6 °F 75% 29.93 in - Variable 4.6 mph - N/A   Unknown
1:25 AM -10.7 °F -22.3 °F -16.1 °F 77% 29.94 in - Variable 4.6 mph - N/A   Unknown
2:25 AM -13.4 °F -23.1 °F -18.6 °F 77% 29.96 in - Variable 3.5 mph - 0.00 in   Unknown
3:25 AM -15.9 °F -26.0 °F -20.9 °F 78% 29.96 in - Variable 3.5 mph - N/A   Unknown
4:25 AM -16.2 °F -28.8 °F -21.8 °F 76% 29.96 in - Variable 4.6 mph - 0.01 in   Unknown
5:25 AM -17.3 °F -27.6 °F -23.1 °F 75% 29.96 in - Variable 3.5 mph - N/A   Unknown
6:25 AM -17.5 °F -30.3 °F -24.2 °F 72% 29.98 in - Variable 4.6 mph - 0.01 in   Unknown
7:25 AM -18.6 °F -35.3 °F -25.4 °F 71% 29.99 in - Variable 6.9 mph 13.8 mph 0.00 in   Unknown
8:26 AM -17.9 °F -37.2 °F -26.3 °F 65% 30.01 in - WSW 9.2 mph 18.4 mph N/A   Unknown
9:26 AM -15.5 °F -28.0 °F -25.6 °F 60% 30.01 in - Variable 4.6 mph 21.9 mph 0.01 in   Unknown
10:25 AM -13.5 °F -27.6 °F -24.9 °F 57% 30.02 in - Variable 5.8 mph 15.0 mph N/A   Unknown
11:25 AM -12.5 °F -28.0 °F -22.7 °F 60% 30.01 in - Variable 6.9 mph 18.4 mph N/A   Unknown
12:28 PM -11.4 °F -28.0 °F -22.2 °F 59% 29.99 in - SW 8.1 mph 18.4 mph N/A   Unknown
1:25 PM -9.2 °F -24.0 °F -22.7 °F 52% 29.98 in - Variable 6.9 mph 19.6 mph N/A   Unknown
2:25 PM -9.9 °F -26.3 °F -22.7 °F 53% 29.99 in - SW 8.1 mph 18.4 mph N/A   Unknown
3:25 PM -11.0 °F -26.2 °F -23.4 °F 54% 29.98 in - Variable 6.9 mph 18.4 mph N/A   Unknown
4:25 PM -14.1 °F -31.3 °F -24.3 °F 60% 29.98 in - SW 8.1 mph 18.4 mph N/A   Unknown
5:25 PM -15.7 °F -33.3 °F -25.1 °F 63% 29.99 in - SW 8.1 mph 19.6 mph 0.00 in   Unknown
6:25 PM -16.4 °F -34.2 °F -25.1 °F 65% 29.99 in - WSW 8.1 mph 20.7 mph N/A   Unknown
7:25 PM -16.4 °F -31.0 °F -24.2 °F 68% 29.98 in - Variable 5.8 mph 18.4 mph 0.00 in   Unknown
8:25 PM -15.5 °F -30.0 °F -23.1 °F 69% 29.97 in - Variable 5.8 mph 18.4 mph N/A   Unknown
9:25 PM -14.3 °F -28.5 °F -22.5 °F 66% 29.96 in - Variable 5.8 mph 15.0 mph 0.01 in   Unknown
10:25 PM -13.5 °F -29.3 °F -22.0 °F 66% 29.96 in - Variable 6.9 mph 18.4 mph N/A   Unknown
11:25 PM -13.2 °F -27.2 °F -21.3 °F 67% 29.95 in - Variable 5.8 mph 16.1 mph N/A   Unknown